STARLINK-32186, 60412

Orbit data source: Space-Track

STARLINK-32186, 60412 is a payload satellite owned by SpaceX/Seattle (US) in LEO that was launched on Sat, 10 Aug 2024 UTC via an FALCON 9 launch vehicle from the Air Force Eastern Test Range (AFETR). Payloads include a variety of satellites, spacecraft, and rockets equipped with specific instruments for various scientific and technological missions. These include communications satellites like Starlink; space stations such as the ISS; scientific satellites like the Hubble; Earth observation satellites from companies like Planet Labs, Umbra, and HawkEye 360; GPS; miniature CubeSats for education and research; and military/defense satellites.

Loading next visibility...
STARLINK-32186 details
Identifier
60412, 2024-141Q
Orbit
LEO
Last TLE update23 hours ago
Origin
Flag of USSpaceX/Seattle (US)
ManufacturerSpaceX/Seattle
MissionOperational spacecraft
Bus & MotorSTARLINK V2M, Unknown motor
Mass730 kg wet, ~700 kg dry
Launch date (UTC)
2024-08-10 (5 months ago)
Launch vehicle
FALCON 9
Launch site
Air Force Eastern Test Range (AFETR)
Object type
Payload
Rocket body
Debris
Shape & HBRUnknown
Radar Cross SectionLarge (>1 m²)

Expand to show TLE details & history

TLE from 23 hours ago
0 STARLINK-32186
1 60412U 24141Q   25014.33926935 -.00000315  00000-0  14753-5 0  9992
2 60412  53.1599  30.6103 0001051  92.9064 267.2057 15.30193064 25319
Epoch: 2025-01-14T08:08Z
Definitive object data (Epoch: 2025-01-14T08:08:32.871Z)
Latitude-0.00004°
Longitude154.42592°
Altitude476.171 km
Speed7.629 km/s
True Right ascension02h 02m 26s
True Declination0° 00' 00"
Sunlit
Object was in daylight at TLE epoch
Visualization TLE readout
Latitude-18.13277°
Longitude-15.87113°
Altitude480.408 km
Speed7.625 km/s
Apparent Right ascension16h 44m 59s
Apparent Declination-34° 02' 46"
Sunlit
Object is in daylight
Visualization observer readout
Local Sidereal Time07:37:40
Azimuth94.201° ESE
Elevation-55.359°
Doppler factor1
Orbital elements
Apogee altitude476.213 km
Perigee altitude474.772 km
Semi-major axis6,853.629 km
Eccentricity0.0001051
Inclination53.1599°
RAAN30.6103°
Arg. of periapsis92.9064°
True anomaly267.19367°
Mean anomaly267.2057°
Eccentric anomaly267.19969°
Mean motion3.82527 °/min
BSTAR0.0000014753
Orbital period94.11 mins
Loading maneuver chart data...
Loading historical data...
Loading historical data...
Loading historical data...
Loading historical data...
Loading historical data...
Loading historical data...
Loading historical data...

STARLINK-32186 Visibility forecast

Observer location: undefined°, undefined

Span
Click to sort rows by Start time (UTC) header in descending order
Start Az.
Max El. time (UTC)
Max El. Az.
Max El.
End time (UTC)
End Az.
4 mins2025-01-15 09:43:12.366Z342.634° N2025-01-15 09:45:12.366Z52.422° ENE30.823°2025-01-15 09:47:12.366Z95.813° ESE
4 mins2025-01-15 11:21:12.366Z262.961° W2025-01-15 11:22:12.366Z238.539° WSW23.004°2025-01-15 11:25:12.366Z175.95° S
5 mins2025-01-16 02:38:12.366Z189.392° SSW2025-01-16 02:40:12.366Z139.613° SSE29.831°2025-01-16 02:43:12.366Z69.814° E
5 mins2025-01-16 04:16:12.366Z278.151° WNW2025-01-16 04:18:12.366Z326.545° NNW26.772°2025-01-16 04:21:12.366Z30.35° NE
|